Lid_Strength_Index
0 0 -0 0 -0 -0 -0 -0 -0 -1 -1 -1 -1 -1 -1 -1 -1 -1 -1 -1 -0 -0 -0 -0 -0 -1 0 -0 -0 0 0 1 2 1 -1 -1 -1 -1 -1 -1 -1 -1 -1
0 0 0 -0 -0 0 0 -0 -1 -0 -1 -1 -1 -1 -1 -1 -1 -0 -0 -0 -0 0 -0 -0 0 -0 -0 -0 0 -0 0 0 1 2 0 0 -0 -1 -1 -1 -1 -1 -1
0 0 0 0 0 0 -0 -0 -1 -1 -1 -1 -1 -0 -0 -1 -1 -1 -1 -0 -0 -0 -0 -0 -0 -0 0 0 0 0 0 0 0 1 2 -0 -0 -0 0 -0 -0 -1 -0
1 0 1 1 1 0 -0 -0 -0 -1 -0 -0 -1 -1 -0 -1 -1 -1 -0 -0 -0 -0 -0 -0 -0 -0 -0 -0 0 0 -0 1 1 1 1 1 0 -1 -0 1 2 0 1
1 1 1 0 -0 -0 0 -0 -0 -0 -0 -1 -0 -0 -0 -0 -0 -0 -0 -0 -0 0 -0 -0 -1 -0 1 0 0 -0 -0 0 1 1 2 1 1 1 1 1 2 1 2
1 1 0 0 0 0 0 0 0 0 -0 -0 -0 -0 0 0 2 2 0 -0 -0 0 0 -0 -0 0 0 2 2 2 0 1 1 2 2 2 1 0 1 1 2 3 4
1 1 1 0 1 0 0 1 1 1 -0 0 0 0 0 -0 3 4 2 -0 0 0 0 0 0 -0 0 -0 2 3 3 3 2 0 1 1 1 0 -0 1 2 2 2
1 1 1 1 1 0 0 1 0 0 0 0 0 -0 0 0 4 6 4 -0 -0 -0 -0 -0 0 0 -0 -0 -0 0 0 -0 -0 0 0 0 -0 -1 -1 -0 -0 0 0
1 1 1 1 1 1 1 1 0 0 0 0 0 0 0 0 4 5 2 0 0 0 -0 -0 -0 0 2 5 0 1 1 0 2 3 5 5 4 4 1 -0 1 2 3
1 1 0 0 0 1 0 0 -0 0 0 0 0 -0 2 0 3 6 3 0 1 1 0 -0 4 1 5 7 0 1 2 1 0 -0 -0 1 3 0 4 -0 0 3 3
0 0 0 -0 0 -0 -0 -0 0 0 0 0 1 0 0 0 0 6 6 0 1 1 1 1 0 6 7 8 7 0 1 0 1 0 1 0 0 -0 -0 -0 -0 1 2
0 0 0 0 0 0 0 0 0 0 1 1 1 1 1 0 4 5 6 7 4 1 1 0 -0 9 9 9 7 5 7 5 1 1 1 2 1 1 1 1 3 5 5
1 1 0 0 0 0 0 1 1 1 1 1 1 1 1 1 0 5 6 7 7 1 0 3 6 8 9 6 7 7 7 2 1 2 2 2 1 2 4 5 6 7 7
1 1 1 1 1 0 1 1 1 1 1 1 2 2 1 1 1 0 0 1 5 3 3 1 2 5 7 5 4 2 2 2 1 2 2 5 6 6 6 6 7 7 7
1 1 1 1 1 1 1 1 1 -0 1 2 1 1 2 2 1 4 5 2 2 4 5 1 1 1 2 1 1 1 1 1 2 6 7 7 8 8 8 6 7 7 8
1 1 1 1 1 1 1 1 8 8 8 10 11 7 1 6 9 10 11 11 12 12 4 2 2 2 2 2 2 2 3 4 6 7 8 8 7 8 7 7 6 6 7
1 1 1 2 1 1 1 2 2 4 10 11 10 10 11 10 11 12 13 14 13 11 3 2 2 2 2 2 3 4 5 5 6 7 8 6 7 7 8 8 8 8 8
1 5 1 1 1 1 1 1 2 2 2 2 9 8 10 12 12 14 14 13 4 5 2 2 2 2 3 3 4 5 5 5 6 6 7 8 7 7 8 8 8 8 7
1 1 0 1 1 1 1 1 1 1 2 2 1 6 7 11 12 13 12 2 2 2 2 3 3 4 4 5 4 4 5 6 6 7 7 7 6 7 7 7 7 8 6
0 2 2 1 1 1 1 1 1 2 2 2 1 2 2 4 3 3 3 2 3 3 3 4 4 4 5 5 5 5 6 6 6 6 6 6 6 6 6 6 6 6 6
-0 -0 2 1 1 1 1 1 1 2 2 2 1 3 9 3 3 3 4 4 4 4 4 4 4 5 5 5 5 6 6 5 6 6 6 5 5 5 4 5 5 5 4
0 0 1 1 1 1 2 2 2 1 1 2 2 4 10 4 4 4 4 4 3 2 3 3 2 4 4 4 4 4 4 5 5 6 6 5 5 3 3 4 4 3 3
0 1 1 1 1 2 2 1 2 2 2 1 2 2 3 3 3 2 1 2 2 1 1 1 3 4 4 4 4 4 4 3 3 3 3 4 4 4 3 3 2 3 3
0 1 1 1 1 2 2 2 2 4 2 1 1 1 1 1 1 1 1 1 1 1 2 2 2 2 2 2 2 2 2 2 3 4 3 3 3 2 1 2 2 2 2
0 1 1 1 1 2 2 2 2 2 2 2 2 1 1 1 0 0 -0 -0 0 1 1 1 2 1 1 2 2 2 7 9 4 6 1 1 1 0 1 1 1 1 1
0 0 1 1 1 1 2 2 2 2 2 2 1 1 1 0 1 1 1 1 1 1 2 2 1 2 2 2 2 9 14 10 4 9 1 1 1 1 1 1 1 2 2